[[{"header":{"parameterUnit":"m.s-1","parameterCategory":1,"la1":30.2991,"la2":30.254,"lo1":-89.0895,"lo2":-89.0444,"dy":0.0017,"dx":0.0017,"nx":28,"ny":28,"refTime":"2025-02-25T03:00:00:Z","depth":0,"parameterNumber":2,"parameterNumberName":"U-component_of_WINDS"},"data":[0,0,0,0,0,0,0,0,0,0,0,0,0,0,0,0,0,0,0,0,0,0,0,0,0,0,0,0,0,0,0,0,0,0,0,0,0,0,0,0,0,0,0,0,0,0,0,0,0,0,0,0,0,0,0,0,0,0,-0.7122,-0.7122,0,-0.712,-0.712,-0.712,-0.7079,-0.7078,-0.7077,-0.7076,-0.7076,-0.7077,-0.7078,0,0,0,0,0,0,0,0,0,0,0,0,0,-0.7092,-0.7093,-0.7122,-0.7122,-0.7122,-0.712,-0.712,-0.712,-0.7079,-0.7078,-0.7076,-0.7075,-0.7076,-0.7077,-0.7078,0,0,0,0,0,0,0,0,0,0,0,0,0,-0.7099,-0.7093,-0.7122,-0.7101,-0.7099,-0.712,-0.712,-0.712,-0.7079,-0.7078,-0.7076,-0.7075,-0.7075,-0.7077,-0.7078,-0.7119,0,0,-0.7083,-0.7083,0,0,0,0,0,0,0,0,-0.7099,-0.71,-0.7104,-0.7103,-0.7101,-0.7098,-0.7109,-0.7119,-0.708,-0.7087,-0.7076,-0.7074,-0.7085,-0.7085,-0.7088,-0.7119,-0.7119,-0.7083,-0.7084,-0.7084,-0.7085,0,0,0,0,0,0,0,-0.7099,-0.71,-0.7121,-0.7104,-0.7102,-0.7093,-0.7092,-0.7111,-0.7095,-0.7086,-0.7083,-0.7083,-0.7083,-0.7087,-0.7088,-0.7119,-0.7083,-0.7084,-0.7085,-0.7085,-0.7182,-0.7184,0,0,0,0,0,0,-0.7101,-0.71,-0.7121,-0.7121,-0.7096,-0.7094,-0.7094,-0.71,-0.7094,-0.7092,-0.7085,-0.7082,-0.7085,-0.7086,-0.7088,-0.7135,-0.7084,-0.7086,-0.7086,-0.7181,-0.7183,-0.7184,0,0,0,0,0,0,-0.71,-0.7103,-0.7121,-0.711,-0.7111,-0.7097,-0.7105,-0.7101,-0.7105,-0.7093,-0.709,-0.7091,-0.7084,-0.7086,-0.7111,-0.7135,-0.7086,-0.7088,-0.7179,-0.7181,-0.7184,-0.723,0,0,0,0,0,0,-0.71,-0.7103,-0.7118,-0.711,-0.7112,-0.7144,-0.7106,-0.7102,-0.7107,-0.7103,-0.7099,-0.7097,-0.7083,-0.7109,-0.7113,-0.7136,-0.7089,-0.7176,-0.718,-0.7183,-0.7226,-0.7234,-0.724,0,0,0,0,0,-0.7099,-0.7132,-0.7119,-0.7122,-0.713,-0.7146,-0.7147,-0.713,-0.7109,-0.7124,-0.7117,-0.7097,-0.7131,-0.7112,-0.7116,-0.714,-0.7175,-0.7179,-0.7182,-0.7223,-0.7232,-0.724,0,0,0,0,0,0,-0.7144,-0.713,-0.7116,-0.7148,-0.7148,-0.7139,-0.7157,-0.714,-0.7147,-0.7143,-0.7122,-0.7121,-0.715,-0.7147,-0.7126,-0.7178,-0.715,-0.7154,-0.7179,-0.7188,-0.7195,-0.7195,-0.709,0,0,0,0,0,-0.7157,-0.717,-0.7158,-0.7187,-0.7188,-0.7173,-0.7179,-0.7165,-0.7165,-0.7165,-0.716,-0.7161,-0.7172,-0.718,-0.7189,-0.7225,-0.7224,-0.7244,-0.7251,-0.7256,-0.7261,-0.728,-0.7288,-0.7197,-0.7197,-0.7197,0,0,-0.7185,-0.718,-0.7189,-0.7196,-0.7194,-0.7209,-0.7173,-0.719,-0.72,-0.7168,-0.7191,-0.7187,-0.7187,-0.7218,-0.7232,-0.7217,-0.7286,-0.7261,-0.7266,-0.7267,-0.7285,-0.7293,-0.7301,-0.7199,-0.7199,-0.7199,0,0,-0.7244,-0.7241,-0.7264,-0.7264,-0.7262,-0.7251,-0.7257,-0.725,-0.7246,-0.7269,-0.7245,-0.7257,-0.7277,-0.7277,-0.728,-0.7339,-0.732,-0.7342,-0.7379,-0.7398,-0.7405,-0.7411,-0.7432,-0.744,-0.7347,-0.7347,-0.7347,0,-0.728,-0.7299,-0.7279,-0.7297,-0.7301,-0.7271,-0.7295,-0.7296,-0.7297,-0.7301,-0.7284,-0.7307,-0.7305,-0.7336,-0.735,-0.7353,-0.736,-0.7343,-0.7405,-0.7411,-0.7417,-0.7437,-0.7445,-0.735,-0.7349,-0.7349,-0.7349,0,-0.7343,-0.7357,-0.7377,-0.7378,-0.7384,-0.7405,-0.7388,-0.7397,-0.7383,-0.7374,-0.7398,-0.7394,-0.7402,-0.7409,-0.7396,-0.7438,-0.7428,-0.7409,-0.7379,-0.7429,-0.7447,-0.7455,-0.7353,-0.7352,-0.7352,-0.7351,0,0,-0.7431,-0.742,-0.7428,-0.7428,-0.7423,-0.7434,-0.7454,-0.7461,-0.7468,-0.747,-0.7487,-0.7503,-0.7485,-0.7488,-0.7475,-0.7491,-0.7538,-0.747,-0.7469,-0.7483,-0.7584,-0.7599,-0.7608,-0.7525,-0.7527,-0.7528,-0.7584,0,-0.7488,-0.7521,-0.7503,-0.7538,-0.7551,-0.7522,-0.7539,-0.7539,-0.7531,-0.7541,-0.7533,-0.7545,-0.752,-0.7522,-0.7537,-0.7529,-0.7558,-0.7525,-0.7541,-0.7542,-0.7542,-0.7618,-0.7634,-0.7687,-0.7591,-0.7592,-0.7593,0,-0.7559,-0.7563,-0.7599,-0.7592,-0.7596,-0.7612,-0.7617,-0.7627,-0.7625,-0.7618,-0.7622,-0.7604,-0.7624,-0.7594,-0.762,-0.7598,-0.7603,-0.7601,-0.7602,-0.7604,-0.7571,-0.7622,-0.7704,-0.7712,-0.7604,-0.7603,-0.7602,0,-0.762,-0.7635,-0.7658,-0.7659,-0.765,-0.7662,-0.7659,-0.7656,-0.7661,-0.7665,-0.7669,-0.7676,-0.768,-0.7685,-0.767,-0.765,-0.7699,-0.7668,-0.7694,-0.7695,-0.7707,-0.7706,-0.7792,-0.7709,-0.7709,-0.7709,-0.7709,0,-0.7686,-0.771,-0.7685,-0.77,-0.7725,-0.7704,-0.773,-0.7724,-0.7721,-0.7735,-0.771,-0.7724,-0.7702,-0.7714,-0.7702,-0.7726,-0.7728,-0.7723,-0.772,-0.7726,-0.7726,-0.7729,-0.7726,-0.7711,-0.7711,-0.771,-0.771,0,-0.7759,-0.7744,-0.7767,-0.7757,-0.7755,-0.7774,-0.7765,-0.7778,-0.7768,-0.7786,-0.7788,-0.7774,-0.7785,-0.777,-0.7781,-0.7773,-0.7806,-0.7796,-0.7806,-0.7804,-0.7831,-0.7829,-0.7922,-0.7933,-0.7843,-0.7844,-0.7845,0,-0.7802,-0.7819,-0.781,-0.7817,-0.7815,-0.7826,-0.7831,-0.7811,-0.7817,-0.7817,-0.783,-0.7839,-0.7846,-0.7866,-0.7857,-0.7865,-0.7856,-0.7888,-0.7857,-0.7862,-0.7857,-0.7856,-0.7858,-0.7895,-0.7896,-0.7896,-0.7897,0,-0.7881,-0.7872,-0.788,-0.7885,-0.7891,-0.7894,-0.7895,-0.7902,-0.7881,-0.7889,-0.79,-0.7905,-0.7916,-0.7925,-0.7931,-0.7928,-0.791,-0.7907,-0.7913,-0.792,-0.7925,-0.7923,-0.7824,-0.7905,-0.7904,-0.7904,-0.7903,-0.7903,-0.7941,-0.7954,-0.795,-0.7959,-0.7958,-0.7959,-0.7971,-0.7962,-0.7971,-0.7977,-0.7965,-0.7979,-0.7977,-0.7982,-0.7981,-0.7992,-0.7979,-0.7988,-0.7991,-0.7994,-0.7998,-0.7922,-0.7993,-0.7993,-0.7993,-0.7993,-0.7992,0,-0.8018,-0.8014,-0.8022,-0.8024,-0.8032,-0.8012,-0.8012,-0.802,-0.8032,-0.8031,-0.8038,-0.8051,-0.806,-0.8051,-0.8058,-0.8069,-0.8061,-0.8072,-0.8071,-0.8071,-0.801,-0.8003,-0.8078,-0.8078,-0.8078,-0.8078,-0.8078,-0.8078,-0.806,-0.8082,-0.8073,-0.8094,-0.8089,-0.8102,-0.8104,-0.8106,-0.8105,-0.812,-0.8127,-0.812,-0.8116,-0.8123,-0.8131,-0.8128,-0.8132,-0.8146,-0.814,-0.8083,-0.8075,-0.8067,-0.8061,-0.8147,-0.8147,-0.82,-0.8201,-0.8201]},{"header":{"parameterUnit":"m.s-1","parameterCategory":1,"la1":30.2991,"la2":30.254,"lo1":-89.0895,"lo2":-89.0444,"dy":0.0017,"dx":0.0017,"nx":28,"ny":28,"refTime":"2025-02-25T03:00:00:Z","depth":0,"parameterNumber":3,"parameterNumberName":"V-component_of_WINDS"},"data":[0,0,0,0,0,0,0,0,0,0,0,0,0,0,0,0,0,0,0,0,0,0,0,0,0,0,0,0,0,0,0,0,0,0,0,0,0,0,0,0,0,0,0,0,0,0,0,0,0,0,0,0,0,0,0,0,0,0,-0.1967,-0.1967,0,-0.1993,-0.1993,-0.1994,-0.2011,-0.2011,-0.2011,-0.2011,-0.2036,-0.2036,-0.2037,0,0,0,0,0,0,0,0,0,0,0,0,0,-0.193,-0.1931,-0.1967,-0.1967,-0.1968,-0.1993,-0.1993,-0.1994,-0.2011,-0.2011,-0.2011,-0.2012,-0.2035,-0.2036,-0.2037,0,0,0,0,0,0,0,0,0,0,0,0,0,-0.195,-0.1931,-0.1967,-0.198,-0.1981,-0.1993,-0.1993,-0.1994,-0.2011,-0.2011,-0.2011,-0.2012,-0.2035,-0.2036,-0.2037,-0.2038,0,0,-0.2039,-0.2039,0,0,0,0,0,0,0,0,-0.1949,-0.1951,-0.1977,-0.1979,-0.198,-0.1999,-0.1989,-0.2008,-0.2011,-0.1999,-0.2011,-0.2012,-0.2023,-0.2025,-0.2029,-0.2039,-0.204,-0.2039,-0.204,-0.204,-0.204,0,0,0,0,0,0,0,-0.1948,-0.195,-0.1977,-0.1978,-0.1979,-0.1983,-0.1986,-0.1993,-0.201,-0.2001,-0.2002,-0.2005,-0.2024,-0.2028,-0.203,-0.204,-0.2039,-0.204,-0.204,-0.2041,-0.2051,-0.2051,0,0,0,0,0,0,-0.1945,-0.1949,-0.1976,-0.1978,-0.1965,-0.1984,-0.1987,-0.1993,-0.201,-0.2013,-0.2005,-0.2006,-0.2027,-0.2029,-0.2031,-0.2033,-0.204,-0.2041,-0.2041,-0.2052,-0.2051,-0.2051,0,0,0,0,0,0,-0.1944,-0.1947,-0.1975,-0.1964,-0.1968,-0.1984,-0.199,-0.1993,-0.1998,-0.2013,-0.2016,-0.2006,-0.2027,-0.203,-0.2036,-0.2034,-0.2041,-0.2042,-0.2052,-0.2051,-0.2051,-0.2037,0,0,0,0,0,0,-0.1943,-0.1946,-0.1948,-0.1964,-0.1968,-0.1981,-0.199,-0.1994,-0.1999,-0.2001,-0.2015,-0.2018,-0.2028,-0.2035,-0.2037,-0.2035,-0.2042,-0.2052,-0.2052,-0.2051,-0.2038,-0.2036,-0.2035,0,0,0,0,0,-0.1941,-0.1942,-0.1947,-0.1951,-0.197,-0.1981,-0.1983,-0.1995,-0.1999,-0.2,-0.201,-0.2017,-0.2034,-0.2035,-0.2038,-0.2036,-0.2052,-0.2052,-0.2051,-0.2038,-0.2036,-0.2035,0,0,0,0,0,0,-0.1924,-0.1944,-0.1951,-0.1957,-0.1967,-0.1984,-0.1985,-0.1993,-0.2001,-0.2002,-0.2016,-0.2019,-0.2024,-0.2031,-0.2032,-0.2038,-0.2044,-0.2044,-0.2033,-0.2032,-0.203,-0.2028,-0.2043,0,0,0,0,0,-0.1921,-0.1929,-0.1946,-0.1949,-0.1954,-0.1969,-0.1974,-0.1982,-0.1993,-0.1997,-0.2007,-0.2016,-0.2023,-0.2028,-0.2035,-0.2039,-0.2042,-0.2039,-0.2038,-0.2036,-0.2036,-0.2038,-0.2037,-0.205,-0.205,-0.205,0,0,-0.1915,-0.1927,-0.1931,-0.1946,-0.1955,-0.1962,-0.1972,-0.1979,-0.1984,-0.1997,-0.2004,-0.2012,-0.2023,-0.2028,-0.203,-0.2034,-0.2033,-0.2036,-0.2035,-0.2035,-0.2038,-0.2036,-0.2035,-0.2049,-0.2049,-0.205,0,0,-0.1907,-0.1917,-0.1921,-0.193,-0.1944,-0.1953,-0.1954,-0.197,-0.1975,-0.1983,-0.1993,-0.1998,-0.2011,-0.2018,-0.2024,-0.2019,-0.2026,-0.2021,-0.2014,-0.2015,-0.2014,-0.2013,-0.2011,-0.201,-0.2021,-0.202,-0.202,0,-0.1897,-0.1909,-0.1922,-0.1929,-0.1935,-0.1949,-0.1953,-0.196,-0.1975,-0.1978,-0.1982,-0.1998,-0.2007,-0.2013,-0.2012,-0.2016,-0.2017,-0.2019,-0.2013,-0.2013,-0.2012,-0.201,-0.2009,-0.202,-0.202,-0.202,-0.202,0,-0.1896,-0.1903,-0.1905,-0.192,-0.1927,-0.1932,-0.1945,-0.195,-0.1958,-0.1967,-0.1973,-0.1984,-0.1994,-0.1996,-0.2003,-0.2004,-0.2005,-0.2011,-0.2017,-0.201,-0.2008,-0.2008,-0.2019,-0.2019,-0.2019,-0.2019,0,0,-0.1878,-0.19,-0.1901,-0.1908,-0.1923,-0.1929,-0.1934,-0.1945,-0.1949,-0.1958,-0.1962,-0.1973,-0.1978,-0.1984,-0.1993,-0.1994,-0.1989,-0.2,-0.2,-0.1997,-0.1989,-0.1984,-0.1983,-0.1994,-0.1994,-0.1994,-0.1988,0,-0.1872,-0.1883,-0.1896,-0.1902,-0.1909,-0.1922,-0.1927,-0.1936,-0.1945,-0.1951,-0.196,-0.1967,-0.1974,-0.1978,-0.198,-0.1989,-0.1987,-0.199,-0.1997,-0.1997,-0.1994,-0.1982,-0.1978,-0.1972,-0.1987,-0.1987,-0.1987,0,-0.1867,-0.1877,-0.1884,-0.1899,-0.1903,-0.1907,-0.1917,-0.1923,-0.1934,-0.194,-0.1947,-0.1956,-0.1962,-0.1967,-0.1975,-0.1976,-0.198,-0.1985,-0.1985,-0.1985,-0.1992,-0.1983,-0.197,-0.1969,-0.1986,-0.1986,-0.1987,0,-0.1852,-0.1867,-0.1874,-0.1879,-0.1897,-0.19,-0.1907,-0.1918,-0.1924,-0.1933,-0.1936,-0.1945,-0.195,-0.1956,-0.1967,-0.1971,-0.1973,-0.198,-0.1977,-0.1977,-0.1977,-0.1977,-0.1964,-0.198,-0.198,-0.198,-0.198,0,-0.1844,-0.1848,-0.1868,-0.1871,-0.1876,-0.189,-0.1894,-0.1902,-0.1912,-0.1917,-0.1929,-0.1933,-0.1947,-0.1953,-0.1962,-0.1966,-0.1968,-0.1973,-0.1975,-0.1971,-0.1971,-0.1974,-0.1974,-0.198,-0.198,-0.198,-0.198,0,-0.1829,-0.1842,-0.185,-0.1866,-0.1871,-0.1873,-0.1887,-0.1891,-0.19,-0.1906,-0.1908,-0.1923,-0.193,-0.1942,-0.1952,-0.1958,-0.1961,-0.1964,-0.1957,-0.1958,-0.1955,-0.1955,-0.1944,-0.1943,-0.1959,-0.1959,-0.1959,0,-0.1823,-0.1826,-0.1843,-0.1848,-0.1855,-0.1863,-0.1868,-0.1882,-0.1888,-0.19,-0.1902,-0.1911,-0.1918,-0.1929,-0.194,-0.1948,-0.1952,-0.1947,-0.1953,-0.195,-0.1951,-0.1951,-0.1951,-0.1946,-0.1946,-0.1945,-0.1945,0,-0.181,-0.1817,-0.1825,-0.1836,-0.1843,-0.1851,-0.1861,-0.1864,-0.1879,-0.1884,-0.1893,-0.1899,-0.191,-0.1918,-0.1927,-0.1934,-0.1942,-0.1944,-0.1943,-0.194,-0.1935,-0.1937,-0.1953,-0.1944,-0.1944,-0.1944,-0.1944,-0.1944,-0.1799,-0.1803,-0.1815,-0.1824,-0.1833,-0.1841,-0.1846,-0.1856,-0.1863,-0.1874,-0.1881,-0.1889,-0.1899,-0.1913,-0.1919,-0.1925,-0.1928,-0.1928,-0.1928,-0.1928,-0.1926,-0.1935,-0.1927,-0.1927,-0.1927,-0.1927,-0.1927,0,-0.1787,-0.1796,-0.1804,-0.1817,-0.1824,-0.1832,-0.1842,-0.1847,-0.1854,-0.1864,-0.1871,-0.188,-0.1888,-0.1899,-0.1908,-0.191,-0.1914,-0.1912,-0.1911,-0.1913,-0.1923,-0.1922,-0.1909,-0.1909,-0.1909,-0.1909,-0.1909,-0.1909,-0.1781,-0.1788,-0.1796,-0.1806,-0.1815,-0.1823,-0.1829,-0.1836,-0.1844,-0.1854,-0.1861,-0.1869,-0.1879,-0.1888,-0.1895,-0.1898,-0.19,-0.1897,-0.1901,-0.191,-0.1912,-0.1914,-0.1913,-0.1898,-0.1898,-0.1891,-0.189,-0.189]}]]